Weather History for Veracruz Airport, Mexico

Change the Weather History Date:

Monday, October 1, 2012

  Actual Average Record
Temperature  
Mean Temperature 78 °F -  
Max Temperature 82 °F 85 °F 93 °F (1998)
Min Temperature 75 °F 71 °F 69 °F (2001)
Cooling Degree Days 14    
Growing Degree Days 28 (Base 50)    
Moisture  
Dew Point 71 °F    
Average Humidity 78    
Maximum Humidity 89    
Minimum Humidity 69    
Precipitation  
Precipitation 0.65 in - - ()
Sea Level Pressure  
Sea Level Pressure 29.85 in    
Wind  
Wind Speed 6 mph ()    
Max Wind Speed 17 mph    
Max Gust Speed -    
Visibility 6.6 miles    
Events Rain    
Averages and records for this station are not official NWS values.
T = Trace of Precipitation, MM = Missing Value Source: Averaged Metar Reports

Daily Weather History Graph

Daily Weather History Graph

Search for Another Location

Airport:

Trip Planner

Search our weather history database for the weather conditions in past years. The results will help you decide how hot, cold, wet, or windy it might be!

Date:

Astronomy

Oct. 01, 2012 Rise Set
Actual Time 7:15 AM CDT 7:12 PM CDT
Civil Twilight 6:53 AM CDT 7:34 PM CDT
Nautical Twilight 6:28 AM CDT 7:59 PM CDT
Astronomical Twilight 6:02 AM CDT 8:25 PM CDT
Moon 8:12 PM CDT (10/1) 8:26 AM CDT (10/1)
Length of Visible Light 12h 40m
Length of Day
11h 57m
Full, 98% of the Moon is Illuminated
Oct 1
Full
Oct 8
Last Quarter
Oct 15
New
Oct 21
First Quarter
Oct 29
Full

Hourly Weather History & Observations

Time (CDT) Temp. Heat Index Dew Point Humidity Pressure Visibility Wind Dir Wind Speed Gust Speed Precip Events Conditions
5:13 AM 77.0 °F - 71.6 °F 83% 29.80 in 7.0 mi WNW 3.5 mph - N/A   Mostly Cloudy
5:47 AM 75.2 °F - 71.6 °F 89% 29.81 in 7.0 mi Calm Calm - N/A   Scattered Clouds
6:40 AM 75.2 °F - 71.6 °F 89% 29.82 in 7.0 mi Calm Calm - N/A   Scattered Clouds
7:41 AM 75.2 °F - 69.8 °F 83% 29.85 in 7.0 mi Calm Calm - N/A   Mostly Cloudy
8:59 AM 75.2 °F - 69.8 °F 83% 29.88 in 7.0 mi Calm Calm - N/A   Overcast
9:28 AM 75.2 °F - 69.8 °F 83% 29.90 in 3.0 mi ENE 13.8 mph - N/A Rain Rain
9:46 AM 75.2 °F - 71.6 °F 89% 29.87 in 4.0 mi ENE 11.5 mph - N/A Rain Light Rain
10:42 AM 78.8 °F - 73.4 °F 83% 29.90 in 6.0 mi ENE 8.1 mph - N/A   Mostly Cloudy
11:40 AM 80.6 °F 84.6 °F 71.6 °F 74% 29.89 in 7.0 mi NNE 9.2 mph - N/A   Overcast
12:42 PM 80.6 °F 84.6 °F 71.6 °F 74% 29.85 in 7.0 mi ENE 5.8 mph - N/A   Overcast
1:42 PM 82.4 °F 87.2 °F 71.6 °F 70% 29.85 in 7.0 mi NNE 12.7 mph - N/A   Overcast
2:43 PM 82.4 °F 87.2 °F 71.6 °F 70% 29.84 in 7.0 mi NNE 12.7 mph - N/A   Mostly Cloudy
3:42 PM 82.4 °F 87.2 °F 71.6 °F 70% 29.79 in 7.0 mi North 16.1 mph - N/A   Mostly Cloudy
4:41 PM 78.8 °F - 71.6 °F 78% 29.81 in 7.0 mi North 17.3 mph - N/A   Mostly Cloudy
5:47 PM 80.6 °F 83.9 °F 69.8 °F 70% 29.81 in 7.0 mi North 11.5 mph - N/A   Mostly Cloudy
6:51 PM 78.8 °F - 69.8 °F 74% 29.82 in 7.0 mi North 10.4 mph - N/A   Mostly Cloudy
7:44 PM 78.8 °F - 68.0 °F 69% 29.85 in 7.0 mi North 9.2 mph - N/A   Mostly Cloudy
8:45 PM 78.8 °F - 68.0 °F 69% 29.88 in 7.0 mi NNE 8.1 mph - N/A   Mostly Cloudy
9:44 PM 78.8 °F - 69.8 °F 74% 29.90 in 7.0 mi NNW 3.5 mph - N/A   Mostly Cloudy
10:46 PM 77.0 °F - 69.8 °F 78% 29.92 in 7.0 mi WNW 2.3 mph - N/A   Mostly Cloudy